Weather in Kalynivka

Ukraine / Vinnytsia Region     48°45′00″N   28°01′35″E
temp.,
°C
wind,
m/s
gust,
m/s
humid.,
%
clouds,
%
prec.,
mm/h
press.,
hPa
HPBL,
m
23 september, thu
thu2300:00+6nw5789100 0.4 1017982
03:00+6nw5885100 0.9 1017992
06:00+6nw4887100 0.2 1017881
09:00+7nnw4781100 0.3 1018740
12:00+8nw5882100 0.1 10181105
15:00+8nw5878100 0.2 1017955
18:00+10w247393 0.1 1016156
21:00+9wsw3480100 0.1 101596
24 september, fri
fri2400:00+9sw3780100 0.0 1014180
03:00+9ssw61271100 0.1 1011357
06:00+8ssw61482100 0.4 1008383
09:00+9sw81679100 1.8 1006734
12:00+14wnw91669100 0.9 10051589
15:00+15wnw10145382 1.1 10051934
18:00+13wnw71357100 0.0 10071487
21:00+10wnw8136898 0.0 10091048
25 september, sat
sat2500:00+11wnw81361100 0.0 10101401
03:00+10wnw7146816 0.0 1012818
06:00+8wnw7147551 0.0 1013618
09:00+10wnw7126866 0.0 1015712
12:00+15nw7105554 0.0 10161226
15:00+18wnw6105056 0.0 10161561
18:00+17wnw6116270 0.0 10171211
21:00+16w51264100 0.0 1018651
26 september, sun
sun2600:00+16w61366100 0.0 1018687
03:00+16w51362100 0.1 1019647
06:00+15wnw4106382 0.0 1019424
09:00+16wnw596521 0.0 1020515
12:00+20nw685437 0.0 10201296
15:00+21nnw674553 0.0 10201548
18:00+19n475175 0.0 1020565
21:00+13nne376130 0.0 1021119
27 september, mon
mon2700:00+10ne367357 0.0 1022110
03:00+9ene368650 0.0 1023104
06:00+8ene359066 0.0 102387
09:00+10e457065 0.0 1023272
12:00+15e444757 0.0 1023962
15:00+18e333882 0.0 10221373
18:00+16e45435 0.0 1021251
21:00+10e485412 0.0 1023136